• In Deutschland
  • Länderverzeichnis
  • Für 7 Tage
  • Wassertemperatur
  • Satellitenkarten
  • Wetterkarte
  • Widgets
  • user-avatar
    Anmelden

    Stündliche Wetter Barisal

    Heute, 26 September, Dienstag

    Zeit Temperatur Niederschläge Wind Luftdruck Luftfeuchtigkeit
    00:00 +31°C° 0 mm 2 m/S 753 mmHg 81%
    01:00 +30°C° 0 mm 2 m/S 753 mmHg 82%
    02:00 +30°C° 0 mm 2 m/S 752 mmHg 82%
    03:00 +30°C° 0 mm 2 m/S 752 mmHg 83%
    04:00 +30°C° 0,5 mm 1 m/S 752 mmHg 83%
    05:00 +30°C° 0,5 mm 1 m/S 753 mmHg 83%
    06:00 +30°C° 0 mm 1 m/S 753 mmHg 84%
    07:00 +31°C° 0,5 mm 1 m/S 753 mmHg 79%
    08:00 +32°C° 0,5 mm 1 m/S 753 mmHg 74%
    09:00 +33°C° 0,5 mm 1 m/S 754 mmHg 68%
    10:00 +35°C° 0 mm 1 m/S 753 mmHg 63%
    11:00 +36°C° 0 mm 1 m/S 753 mmHg 58%
    12:00 +36°C° 0 mm 1 m/S 754 mmHg 56%
    13:00 +36°C° 0 mm 1 m/S 753 mmHg 55%
    14:00 +36°C° 0 mm 1 m/S 753 mmHg 53%
    15:00 +36°C° 0 mm 1 m/S 752 mmHg 52%
    16:00 +36°C° 0 mm 1 m/S 752 mmHg 55%
    17:00 +35°C° 0 mm 1 m/S 752 mmHg 58%
    18:00 +34°C° 0 mm 1 m/S 752 mmHg 61%
    19:00 +34°C° 0 mm 2 m/S 753 mmHg 64%
    20:00 +34°C° 0 mm 2 m/S 753 mmHg 67%
    21:00 +32°C° 0 mm 2 m/S 753 mmHg 71%
    22:00 +32°C° 0,3 mm 2 m/S 753 mmHg 73%
    23:00 +31°C° 0,3 mm 2 m/S 753 mmHg 74%

    Morgen, 27 September, Mittwoch

    Zeit Temperatur Niederschläge Wind Luftdruck Luftfeuchtigkeit
    00:00 +31°C° 0,3 mm 2 m/S 753 mmHg 76%
    01:00 +31°C° 1 mm 2 m/S 753 mmHg 77%
    02:00 +31°C° 1 mm 1 m/S 753 mmHg 78%
    03:00 +30°C° 1 mm 1 m/S 753 mmHg 80%
    04:00 +30°C° 1,1 mm 1 m/S 753 mmHg 80%
    05:00 +30°C° 1,1 mm 1 m/S 753 mmHg 81%
    06:00 +28°C° 1,1 mm 0 m/S 754 mmHg 82%
    07:00 +31°C° 0,9 mm 1 m/S 754 mmHg 79%
    08:00 +31°C° 0,9 mm 1 m/S 755 mmHg 75%
    09:00 +32°C° 0,9 mm 1 m/S 755 mmHg 72%
    10:00 +33°C° 0 mm 1 m/S 755 mmHg 67%
    11:00 +34°C° 0 mm 1 m/S 754 mmHg 62%
    12:00 +35°C° 0 mm 1 m/S 754 mmHg 58%
    13:00 +35°C° 0,1 mm 1 m/S 753 mmHg 57%
    14:00 +37°C° 0,1 mm 2 m/S 753 mmHg 57%
    15:00 +37°C° 0,1 mm 2 m/S 752 mmHg 56%
    16:00 +36°C° 0,1 mm 2 m/S 752 mmHg 60%
    17:00 +35°C° 0,1 mm 2 m/S 752 mmHg 64%
    18:00 +34°C° 0,1 mm 2 m/S 752 mmHg 68%
    19:00 +32°C° 0 mm 2 m/S 753 mmHg 71%
    20:00 +32°C° 0 mm 2 m/S 753 mmHg 74%
    21:00 +31°C° 0 mm 2 m/S 754 mmHg 77%
    22:00 +31°C° 0,1 mm 2 m/S 754 mmHg 79%
    23:00 +31°C° 0,1 mm 2 m/S 753 mmHg 81%

    übermorgen, 28 September, Donnerstag

    Zeit Temperatur Niederschläge Wind Luftdruck Luftfeuchtigkeit
    00:00 +30°C° 0,1 mm 2 m/S 753 mmHg 82%
    01:00 +30°C° 1,5 mm 2 m/S 753 mmHg 83%
    02:00 +30°C° 1,5 mm 2 m/S 753 mmHg 84%
    03:00 +30°C° 1,5 mm 2 m/S 752 mmHg 85%
    04:00 +30°C° 1,9 mm 2 m/S 752 mmHg 84%
    05:00 +30°C° 1,9 mm 1 m/S 753 mmHg 83%
    06:00 +30°C° 1,9 mm 1 m/S 753 mmHg 82%
    07:00 +30°C° 1 mm 1 m/S 753 mmHg 80%
    08:00 +31°C° 1 mm 1 m/S 754 mmHg 78%
    09:00 +31°C° 1 mm 2 m/S 755 mmHg 76%
    10:00 +31°C° 0,5 mm 2 m/S 754 mmHg 76%
    11:00 +31°C° 0,5 mm 2 m/S 754 mmHg 75%
    12:00 +32°C° 0,5 mm 2 m/S 753 mmHg 74%
    13:00 +31°C° 0,1 mm 2 m/S 753 mmHg 75%
    14:00 +31°C° 0,1 mm 2 m/S 752 mmHg 77%
    15:00 +31°C° 0,1 mm 2 m/S 751 mmHg 78%
    16:00 +30°C° 0,8 mm 2 m/S 752 mmHg 80%
    17:00 +30°C° 0,8 mm 2 m/S 752 mmHg 83%
    18:00 +29°C° 0,8 mm 2 m/S 752 mmHg 85%
    19:00 +29°C° 0,3 mm 2 m/S 752 mmHg 85%
    20:00 +29°C° 0,3 mm 2 m/S 753 mmHg 86%
    21:00 +29°C° 0,3 mm 2 m/S 754 mmHg 86%
    22:00 +29°C° 0,6 mm 2 m/S 754 mmHg 86%
    23:00 +29°C° 0,6 mm 2 m/S 753 mmHg 85%

    29 September, Freitag

    Zeit Temperatur Niederschläge Wind Luftdruck Luftfeuchtigkeit
    00:00 +28°C° 0,6 mm 2 m/S 753 mmHg 85%
    01:00 +28°C° 0,6 mm 2 m/S 753 mmHg 85%
    02:00 +28°C° 0,6 mm 2 m/S 752 mmHg 86%
    03:00 +28°C° 0,6 mm 1 m/S 752 mmHg 86%
    04:00 +28°C° 0,7 mm 1 m/S 752 mmHg 86%
    05:00 +28°C° 0,7 mm 1 m/S 752 mmHg 86%
    06:00 +28°C° 0,7 mm 1 m/S 752 mmHg 86%
    07:00 +29°C° 0,8 mm 1 m/S 753 mmHg 83%
    08:00 +30°C° 0,8 mm 1 m/S 754 mmHg 80%
    09:00 +30°C° 0,8 mm 1 m/S 754 mmHg 77%
    10:00 +31°C° 0,7 mm 1 m/S 754 mmHg 75%
    11:00 +32°C° 0,7 mm 1 m/S 753 mmHg 72%
    12:00 +32°C° 0,7 mm 2 m/S 753 mmHg 70%
    13:00 +34°C° 0,8 mm 2 m/S 752 mmHg 68%
    14:00 +34°C° 0,8 mm 2 m/S 752 mmHg 67%
    15:00 +34°C° 0,8 mm 2 m/S 751 mmHg 65%
    16:00 +33°C° 1,8 mm 3 m/S 751 mmHg 72%
    17:00 +31°C° 1,8 mm 3 m/S 751 mmHg 78%
    18:00 +30°C° 1,8 mm 3 m/S 752 mmHg 84%
    19:00 +29°C° 1,3 mm 3 m/S 752 mmHg 85%
    20:00 +29°C° 1,3 mm 2 m/S 753 mmHg 86%
    21:00 +29°C° 1,3 mm 2 m/S 754 mmHg 86%
    22:00 +29°C° 1,2 mm 2 m/S 754 mmHg 87%
    23:00 +29°C° 1,2 mm 2 m/S 754 mmHg 87%

    30 September, Samstag

    Zeit Temperatur Niederschläge Wind Luftdruck Luftfeuchtigkeit
    00:00 +29°C° 1,2 mm 3 m/S 754 mmHg 87%
    01:00 +28°C° 1,3 mm 3 m/S 753 mmHg 88%
    02:00 +28°C° 1,3 mm 2 m/S 753 mmHg 88%
    03:00 +28°C° 1,3 mm 2 m/S 753 mmHg 89%
    04:00 +28°C° 0,5 mm 2 m/S 753 mmHg 89%
    05:00 +28°C° 0,5 mm 2 m/S 753 mmHg 90%
    06:00 +28°C° 0,5 mm 1 m/S 754 mmHg 90%
    07:00 +29°C° 0,1 mm 1 m/S 754 mmHg 87%
    08:00 +29°C° 0,1 mm 1 m/S 755 mmHg 83%
    09:00 +30°C° 0,1 mm 1 m/S 755 mmHg 80%
    10:00 +31°C° 0,1 mm 2 m/S 755 mmHg 75%
    11:00 +32°C° 0,1 mm 2 m/S 755 mmHg 69%
    12:00 +35°C° 0,1 mm 3 m/S 754 mmHg 64%
    13:00 +35°C° 0,1 mm 3 m/S 753 mmHg 64%
    14:00 +35°C° 0,1 mm 3 m/S 753 mmHg 63%
    15:00 +35°C° 0,1 mm 3 m/S 752 mmHg 63%
    16:00 +34°C° 0,5 mm 3 m/S 752 mmHg 68%
    17:00 +33°C° 0,5 mm 4 m/S 753 mmHg 74%
    18:00 +32°C° 0,5 mm 4 m/S 753 mmHg 79%
    19:00 +30°C° 0,8 mm 3 m/S 754 mmHg 81%
    20:00 +30°C° 0,8 mm 3 m/S 754 mmHg 83%
    21:00 +29°C° 0,8 mm 3 m/S 755 mmHg 86%
    22:00 +29°C° 0,7 mm 3 m/S 754 mmHg 87%
    23:00 +29°C° 0,7 mm 3 m/S 754 mmHg 87%

    1 Oktober, Sonntag

    Zeit Temperatur Niederschläge Wind Luftdruck Luftfeuchtigkeit
    00:00 +29°C° 0,7 mm 3 m/S 754 mmHg 88%
    01:00 +28°C° 0,8 mm 3 m/S 754 mmHg 88%
    02:00 +28°C° 0,8 mm 2 m/S 753 mmHg 88%
    03:00 +28°C° 0,8 mm 2 m/S 753 mmHg 89%
    04:00 +28°C° 0,5 mm 2 m/S 753 mmHg 88%
    05:00 +28°C° 0,5 mm 1 m/S 754 mmHg 88%
    06:00 +28°C° 0,5 mm 1 m/S 754 mmHg 88%
    07:00 +29°C° 0,7 mm 1 m/S 754 mmHg 84%
    08:00 +30°C° 0,7 mm 2 m/S 755 mmHg 79%
    09:00 +31°C° 0,7 mm 2 m/S 755 mmHg 75%
    10:00 +33°C° 0,2 mm 3 m/S 755 mmHg 72%
    11:00 +34°C° 0,2 mm 3 m/S 755 mmHg 69%
    12:00 +34°C° 0,2 mm 4 m/S 754 mmHg 66%
    13:00 +34°C° 0,3 mm 4 m/S 754 mmHg 67%
    14:00 +34°C° 0,3 mm 4 m/S 753 mmHg 68%
    15:00 +34°C° 0,3 mm 4 m/S 753 mmHg 69%
    16:00 +33°C° 0 mm 4 m/S 753 mmHg 73%
    17:00 +31°C° 0 mm 3 m/S 753 mmHg 77%
    18:00 +30°C° 0 mm 3 m/S 753 mmHg 81%
    19:00 +30°C° 0,2 mm 3 m/S 754 mmHg 82%
    20:00 +30°C° 0,2 mm 3 m/S 754 mmHg 84%
    21:00 +29°C° 0,2 mm 3 m/S 755 mmHg 85%
    22:00 +29°C° 1 mm 3 m/S 754 mmHg 86%
    23:00 +29°C° 1 mm 3 m/S 754 mmHg 86%
    Mehr zeigen